1522587600.46,33806,10.56,71300.5,-7.89,-9.27,-9.23,0,*5C
1522587601.71,33807,10.56,71280.5,-7.89,-9.49,-9.37,0,*50
1522587602.98,33808,10.56,71254.3,-7.85,-9.45,-9.37,0,*5F
1522587604.24,33809,10.56,71222.8,-7.85,-9.31,-9.37,0,*5D
1522587605.47,33810,10.56,71222.5,-7.89,-9.15,-9.01,0,*5A
1522587606.7,33811,10.56,71230.0,-7.85,-9.05,-8.97,0,*58
1522587607.93,33812,10.56,71188.0,-7.85,-9.19,-8.97,0,*56
1522587609.18,33813,10.56,71228.0,-7.85,-8.85,-8.81,0,*54
1522587610.41,33814,10.5,71300.0,-7.85,-8.71,-8.71,0,*57
1522587611.63,33815,10.56,71318.3,-7.85,-8.71,-8.67,0,*51
1522587612.85,33816,10.56,71296.0,-7.85,-8.67,-8.67,0,*55
1522587614.05,33817,10.56,71286.8,-7.83,-8.71,-8.67,0,*55
1522587615.28,33818,10.56,71276.0,-7.83,-8.81,-8.71,0,*52
1522587616.48,33819,10.56,71252.3,-7.83,-8.97,-8.85,0,*5F
1522587617.71,33820,10.5,71266.8,-7.85,-8.97,-8.93,0,*54
1522587618.94,33821,10.5,71282.8,-7.83,-9.37,-9.31,0,*51
1522587620.19,33822,10.56,71298.5,-7.83,-9.49,-9.49,0,*54
1522587621.4,33823,10.5,71292.8,-7.83,-9.67,-9.67,0,*55
1522587622.63,33824,10.56,71292.3,-7.83,-9.45,-9.23,0,*52
1522587623.83,33825,10.5,71286.0,-7.83,-9.19,-9.05,0,*5E
1522587625.04,33826,10.5,71238.0,-7.83,-9.05,-9.05,0,*50
1522587626.27,33827,10.5,71150.8,-7.83,-9.45,-9.31,0,*52
1522587627.48,33828,10.56,71202.0,-7.83,-8.97,-8.93,0,*5A
1522587628.71,33829,10.56,71272.3,-7.83,-9.19,-9.11,0,*57
1522587629.98,33830,10.56,71292.5,-7.85,-9.49,-9.49,0,*51
1522587631.25,33831,10.56,71264.0,-7.85,-9.61,-9.57,0,*55
1522587632.47,33832,10.56,71300.0,-7.85,-9.89,-9.75,0,*50
1522587633.72,33833,10.56,71244.5,-7.85,-9.31,-9.37,0,*54
1522587634.94,33834,10.56,71268.5,-7.85,-9.93,-9.89,0,*5E
1522587636.14,33835,10.56,71224.8,-7.89,-10.05,-9.93,0,*6F
1522587637.39,33836,10.5,71114.8,-7.89,-9.53,-9.49,0,*50
1522587638.61,33837,10.56,71134.5,-7.89,-9.49,-9.27,0,*52
1522587639.86,33838,10.56,71202.0,-7.91,-9.41,-9.27,0,*5C
1522587641.11,33839,10.5,71254.0,-7.89,-9.41,-9.15,0,*55
1522587642.33,33840,10.56,71258.8,-7.89,-9.11,-8.97,0,*55
1522587643.54,33841,10.56,71248.8,-7.89,-8.97,-8.85,0,*58
1522587644.74,33842,10.56,71298.3,-7.89,-8.71,-8.71,0,*58
1522587645.94,33843,10.56,71288.5,-7.89,-8.85,-8.75,0,*56
1522587647.22,33844,10.56,71274.0,-7.85,-9.37,-9.37,0,*52
1522587648.44,33845,10.5,71250.5,-7.89,-9.71,-9.61,0,*5E
1522587649.66,33846,10.56,71200.0,-7.89,-9.67,-9.61,0,*5A
1522587650.89,33847,10.5,71242.5,-7.89,-9.27,-9.11,0,*58
1522587652.14,33848,10.56,71242.3,-7.89,-9.37,-9.37,0,*52
1522587653.37,33849,10.56,71248.5,-7.89,-9.27,-9.15,0,*52
1522587654.57,33850,10.56,71264.8,-7.89,-9.23,-9.01,0,*5B
1522587655.8,33851,10.56,71292.5,-7.89,-9.15,-9.01,0,*5F
1522587657.06,33852,10.5,71266.0,-7.89,-9.37,-9.37,0,*59
1522587658.34,33853,10.56,71266.5,-7.85,-9.45,-9.37,0,*51
1522587659.58,33854,10.56,71192.8,-7.89,-9.61,-9.41,0,*5D
1522587660.78,33855,10.56,71168.8,-7.89,-9.27,-9.01,0,*5A
1522587662.01,33856,10.5,71234.8,-7.89,-9.11,-8.97,0,*52
1522587663.27,33857,10.56,71198.3,-7.85,-9.11,-8.85,0,*5C
1522587664.5,33858,10.56,71274.3,-7.85,-8.97,-8.89,0,*50
1522587665.69,33859,10.56,71258.5,-7.89,-9.23,-9.19,0,*5B
1522587666.93,33860,10.5,71256.3,-7.85,-8.93,-8.85,0,*53
1522587668.15,33861,10.56,71226.3,-7.85,-8.71,-8.67,0,*52
1522587669.38,33862,10.5,71212.8,-7.85,-8.71,-8.71,0,*56
1522587670.64,33863,10.56,71214.8,-7.85,-9.11,-9.05,0,*52
1522587671.87,33864,10.56,71270.0,-7.83,-9.23,-9.11,0,*57
1522587673.12,33865,10.56,71274.8,-7.85,-9.37,-9.19,0,*5D
1522587674.33,33866,10.56,71284.8,-7.83,-9.05,-8.97,0,*5E
1522587675.55,33867,10.56,71282.5,-7.83,-8.85,-8.85,0,*55
1522587676.78,33868,10.5,71280.8,-7.83,-9.11,-9.05,0,*5F
1522587677.99,33869,10.56,71276.5,-7.83,-9.23,-9.31,0,*58
1522587679.19,33870,10.56,71262.3,-7.83,-9.31,-9.31,0,*53
1522587680.44,33871,10.56,71266.5,-7.81,-9.15,-9.19,0,*5C
1522587681.68,33872,10.56,71266.8,-7.85,-8.81,-8.67,0,*5F
1522587682.91,33873,10.56,71264.3,-7.85,-8.63,-8.63,0,*56
1522587684.14,33874,10.56,71246.5,-7.83,-8.93,-8.81,0,*54
1522587685.34,33875,10.56,71246.3,-7.83,-8.97,-8.97,0,*56
1522587686.57,33876,10.56,71250.0,-7.83,-8.85,-8.81,0,*51
1522587687.78,33877,10.56,71252.5,-7.83,-8.63,-8.63,0,*54
1522587689.01,33878,10.56,71264.3,-7.83,-8.55,-8.51,0,*5F
1522587690.21,33879,10.56,71268.8,-7.83,-8.63,-8.55,0,*5F
1522587691.46,33880,10.56,71248.0,-7.81,-8.59,-8.51,0,*56
1522587692.71,33881,10.56,71248.0,-7.81,-8.93,-8.81,0,*5C
1522587693.94,33882,10.56,71236.5,-7.81,-9.19,-9.05,0,*51
1522587695.17,33883,10.56,71248.3,-7.81,-9.31,-9.27,0,*5A
1522587696.38,33884,10.5,71224.5,-7.83,-9.05,-8.93,0,*56
1522587697.58,33885,10.5,71258.8,-7.83,-8.97,-8.93,0,*5D
1522587698.83,33886,10.56,71272.8,-7.83,-9.53,-9.45,0,*5D
1522587700.09,33887,10.56,71264.8,-7.83,-9.45,-9.37,0,*5E
1522587701.3,33888,10.56,71264.5,-7.83,-9.31,-9.19,0,*5E
1522587702.53,33889,10.56,71292.0,-7.81,-9.05,-9.01,0,*53
1522587703.74,33890,10.56,71218.3,-7.83,-9.31,-9.19,0,*57
1522587704.94,33891,10.56,71196.0,-7.83,-9.19,-9.19,0,*5C
1522587706.17,33892,10.56,71196.0,-7.83,-9.37,-9.31,0,*59
1522587707.42,33893,10.56,71178.3,-7.81,-9.41,-9.31,0,*5B
1522587708.65,33894,10.56,71202.5,-7.83,-9.23,-9.11,0,*58
1522587709.89,33895,10.56,71160.3,-7.83,-9.11,-8.97,0,*57
1522587711.12,33896,10.56,71260.5,-7.81,-8.93,-8.89,0,*52
1522587712.35,33897,10.5,71248.8,-7.83,-8.93,-8.81,0,*59
1522587713.58,33898,10.56,71258.3,-7.83,-8.81,-8.71,0,*5A
1522587714.83,33899,10.5,71198.0,-7.81,-8.93,-8.81,0,*55
1522587716.06,33900,10.5,71234.3,-7.83,-9.31,-9.15,0,*53
1522587717.29,33901,10.56,71220.8,-7.83,-9.11,-8.97,0,*5B
1522587718.57,33902,10.5,71238.0,-7.81,-9.61,-9.53,0,*54
1522587719.82,33903,10.56,71228.5,-7.83,-9.61,-9.49,0,*5C
1522587721.07,33904,10.5,71204.3,-7.83,-9.61,-9.49,0,*5B
1522587722.33,33905,10.56,71228.3,-7.83,-9.49,-9.37,0,*59
1522587723.57,33906,10.56,71234.8,-7.83,-9.11,-9.05,0,*56
1522587724.8,33907,10.56,71238.8,-7.83,-9.19,-9.11,0,*5A
1522587726.0,33908,10.5,71252.5,-7.83,-9.31,-9.23,0,*5E
1522587727.21,33909,10.56,71234.5,-7.83,-9.23,-9.19,0,*55
1522587728.43,33910,10.56,71222.3,-7.85,-10.05,-9.89,0,*6E
1522587729.68,33911,10.5,71206.0,-7.85,-9.67,-9.49,0,*5F
1522587730.93,33912,10.56,71140.3,-7.89,-9.49,-9.37,0,*55
1522587732.21,33913,10.56,71018.0,-7.85,-9.45,-9.37,0,*54
1522587733.43,33914,10.5,71176.0,-7.89,-9.41,-9.27,0,*5A
1522587734.65,33915,10.56,71124.3,-7.85,-9.93,-9.75,0,*5F
1522587735.88,33916,10.5,71242.8,-7.85,-9.31,-9.19,0,*5E
1522587737.13,33917,10.56,71212.5,-7.89,-9.41,-9.37,0,*58
1522587738.38,33918,10.56,71190.3,-7.89,-9.61,-9.49,0,*5C
1522587739.63,33919,10.5,71186.3,-7.89,-9.15,-9.15,0,*57
1522587740.91,33920,10.56,71178.0,-7.85,-9.11,-9.11,0,*51
1522587742.16,33921,10.56,71192.5,-7.89,-9.61,-9.61,0,*5C
1522587743.4,33922,10.56,71176.3,-7.89,-9.53,-9.37,0,*5D
1522587744.6,33923,10.56,71178.8,-7.89,-9.27,-9.23,0,*5A
1522587745.85,33924,10.5,71202.8,-7.89,-9.37,-9.41,0,*58
1522587747.1,33925,10.5,71196.3,-7.89,-9.49,-9.49,0,*58
1522587748.34,33926,10.5,71200.8,-7.85,-9.45,-9.31,0,*54
1522587749.62,33927,10.56,71174.8,-7.91,-9.41,-9.41,0,*53
1522587750.9,33928,10.56,71194.8,-7.91,-9.41,-9.41,0,*5C
1522587752.15,33929,10.5,71162.0,-7.91,-9.37,-9.23,0,*58
1522587753.4,33930,10.5,71188.3,-7.91,-9.37,-9.23,0,*50
1522587754.68,33931,10.56,71186.5,-7.91,-9.15,-9.11,0,*50
1522587755.96,33932,10.56,71222.3,-7.91,-9.37,-9.37,0,*57
1522587757.24,33933,10.56,71216.0,-7.91,-9.49,-9.37,0,*5F
1522587758.51,33934,10.5,71194.0,-7.91,-9.53,-9.41,0,*52
1522587759.78,33935,10.5,71186.3,-7.91,-9.53,-9.49,0,*5B
1522587761.0,33936,10.56,71212.0,-7.93,-9.67,-9.53,0,*56
1522587762.27,33937,10.56,71212.0,-7.91,-9.49,-9.49,0,*52
1522587763.49,33938,10.5,71196.3,-7.91,-9.93,-9.93,0,*5D
1522587764.68,33939,10.56,71212.8,-7.93,-9.97,-9.75,0,*52
1522587765.92,33940,10.5,71180.0,-7.93,-9.57,-9.53,0,*54
1522587767.12,33941,10.5,71208.8,-7.93,-9.71,-9.67,0,*56
1522587768.32,33942,10.56,71212.3,-7.93,-9.19,-9.05,0,*5F
1522587769.53,33943,10.56,71224.3,-7.93,-9.83,-9.75,0,*5A
1522587770.74,33944,10.56,71206.5,-7.93,-10.01,-10.01,0,*54
1522587771.96,33945,10.56,71150.0,-7.95,-10.01,-9.97,0,*64
1522587773.23,33946,10.56,71208.8,-7.95,-9.57,-9.45,0,*53
1522587774.47,33947,10.56,71190.8,-7.95,-9.41,-9.31,0,*56
1522587775.72,33948,10.56,71232.8,-7.97,-9.45,-9.37,0,*59
1522587776.99,33949,10.56,71236.0,-7.95,-9.53,-9.53,0,*5F
1522587778.22,33950,10.56,71228.3,-7.95,-9.75,-9.71,0,*53
1522587779.43,33951,10.56,71154.5,-7.95,-9.31,-9.31,0,*56
1522587780.66,33952,10.5,71148.5,-7.95,-9.19,-9.05,0,*58
1522587781.86,33953,10.5,71174.3,-7.97,-8.97,-8.93,0,*52
1522587783.08,33954,10.5,71210.3,-7.97,-9.23,-9.11,0,*50
1522587784.35,33955,10.56,71224.3,-7.95,-9.53,-9.41,0,*51
1522587785.62,33956,10.56,71244.0,-7.95,-9.45,-9.57,0,*52
1522587786.89,33957,10.5,71240.3,-7.95,-9.45,-9.41,0,*54
1522587788.15,33958,10.56,71218.0,-7.95,-9.57,-9.57,0,*5F
1522587789.37,33959,10.56,71166.5,-7.95,-9.19,-9.19,0,*5E
1522587790.59,33960,10.5,71158.5,-7.95,-9.27,-9.05,0,*54
1522587791.82,33961,10.56,71174.8,-7.95,-9.05,-9.01,0,*51
1522587793.05,33962,10.56,71216.3,-7.95,-9.05,-8.93,0,*58
1522587794.28,33963,10.5,71238.5,-7.95,-8.93,-8.89,0,*5C
1522587795.5,33964,10.56,71242.0,-7.93,-8.93,-8.81,0,*55
1522587796.69,33965,10.56,71200.8,-7.93,-9.19,-9.05,0,*5A
1522587797.92,33966,10.56,71256.5,-7.93,-9.15,-9.05,0,*55
1522587799.16,33967,10.56,71196.3,-7.93,-9.57,-9.53,0,*51
1522587800.39,33968,10.56,71118.3,-7.93,-9.71,-9.53,0,*5A
1522587801.63,33969,10.56,71230.8,-7.93,-9.53,-9.45,0,*5C
1522587802.87,33970,10.56,71162.0,-7.93,-9.53,-9.45,0,*54
1522587804.09,33971,10.56,71232.0,-7.93,-9.41,-9.31,0,*55
1522587805.28,33972,10.56,71240.5,-7.93,-9.05,-8.93,0,*5F
1522587806.54,33973,10.56,71242.8,-7.91,-9.11,-8.89,0,*52
1522587807.77,33974,10.56,71262.5,-7.91,-8.85,-8.75,0,*5A
1522587808.96,33975,10.56,71264.8,-7.93,-8.75,-8.63,0,*51
1522587810.18,33976,10.5,71250.5,-7.91,-8.71,-8.71,0,*57
1522587811.41,33977,10.56,71242.8,-7.91,-8.75,-8.71,0,*52
1522587812.63,33978,10.56,71230.8,-7.91,-8.85,-8.71,0,*52
1522587813.85,33979,10.5,71226.5,-7.91,-8.75,-8.71,0,*5C
1522587815.13,33980,10.5,71218.3,-7.91,-9.41,-9.37,0,*5F
1522587816.38,33981,10.56,71222.8,-7.91,-9.37,-9.23,0,*5A
1522587817.6,33982,10.56,71228.0,-7.91,-8.75,-8.75,0,*5C
1522587818.84,33983,10.56,71222.3,-7.91,-8.89,-8.89,0,*5D
1522587820.07,33984,10.5,71226.5,-7.91,-9.01,-8.97,0,*54
1522587821.27,33985,10.5,71234.3,-7.89,-8.85,-8.75,0,*5D
1522587822.47,33986,10.5,71234.8,-7.89,-8.97,-8.97,0,*51
1522587823.69,33987,10.5,71260.8,-7.89,-9.37,-9.27,0,*51
1522587824.94,33988,10.56,71216.0,-7.89,-9.41,-9.37,0,*5E
1522587826.19,33989,10.56,71202.0,-7.89,-9.83,-9.83,0,*5E
1522587827.46,33990,10.5,71206.5,-7.91,-9.53,-9.49,0,*54
1522587828.73,33991,10.56,71240.0,-7.91,-9.37,-9.15,0,*5E
1522587829.98,33992,10.56,71254.0,-7.93,-9.53,-9.45,0,*58
1522587831.2,33993,10.5,71212.0,-7.91,-9.79,-9.71,0,*54
1522587832.44,33994,10.56,71168.3,-7.93,-9.57,-9.57,0,*59
1522587833.66,33995,10.5,71222.8,-7.93,-9.11,-9.05,0,*5D
1522587834.91,33996,10.56,71170.5,-7.93,-9.49,-9.53,0,*50
1522587836.16,33997,10.56,71124.5,-7.91,-9.27,-9.15,0,*59
1522587837.38,33998,10.56,71170.0,-7.93,-9.45,-9.27,0,*51
1522587838.59,33999,10.56,71144.8,-7.93,-9.31,-9.15,0,*52
1522587839.82,34000,10.56,71216.3,-7.93,-9.41,-9.27,0,*5A
1522587841.06,34001,10.5,71218.8,-7.93,-9.57,-9.45,0,*58
1522587842.28,34002,10.56,71214.0,-7.91,-9.67,-9.67,0,*5A
1522587843.55,34003,10.56,71202.0,-7.91,-9.61,-9.49,0,*51
1522587844.82,34004,10.56,71214.3,-7.91,-9.61,-9.53,0,*5D
1522587846.01,34005,10.5,71196.5,-7.93,-9.89,-9.75,0,*5C
1522587847.2,34006,10.56,71202.5,-7.93,-9.97,-9.89,0,*53
1522587848.42,34007,10.56,71228.8,-7.95,-9.31,-9.27,0,*5C
1522587849.64,34008,10.56,71248.5,-7.95,-9.19,-9.05,0,*59
1522587850.91,34009,10.5,71186.8,-7.95,-9.53,-9.45,0,*52
1522587852.11,34010,10.5,71058.3,-7.97,-9.75,-9.71,0,*5B
1522587853.31,34011,10.5,71210.8,-7.97,-9.23,-9.19,0,*57
1522587854.56,34012,10.5,71226.3,-7.95,-9.27,-9.15,0,*5E
1522587855.81,34013,10.56,71236.5,-7.95,-9.41,-9.27,0,*5E
1522587857.03,34014,10.5,71260.5,-7.95,-8.93,-8.93,0,*59
1522587858.28,34015,10.56,71278.0,-7.95,-9.27,-9.41,0,*58
1522587859.52,34016,10.5,71266.3,-7.95,-9.45,-9.31,0,*58
1522587860.76,34017,10.56,71230.3,-7.95,-10.27,-10.15,0,*5B
1522587861.99,34018,10.56,71206.3,-7.95,-10.23,-10.09,0,*5D
1522587863.21,34019,10.56,71144.5,-7.97,-9.75,-9.57,0,*56
1522587864.43,34020,10.56,71110.8,-7.95,-9.31,-9.19,0,*54
1522587865.66,34021,10.5,71156.5,-7.95,-9.31,-9.27,0,*58
1522587866.9,34022,10.56,71188.8,-7.95,-9.41,-9.19,0,*51
1522587868.16,34023,10.56,71246.0,-7.95,-9.15,-8.93,0,*52
1522587869.43,34024,10.5,71270.5,-7.95,-9.45,-9.41,0,*5E
1522587870.62,34025,10.56,71278.8,-7.97,-9.93,-9.79,0,*5D
1522587871.84,34026,10.56,71288.8,-7.95,-9.89,-9.97,0,*57
1522587873.04,34027,10.56,71288.8,-7.97,-9.75,-9.75,0,*5B
1522587874.28,34028,10.56,71296.5,-7.97,-9.61,-9.61,0,*54
1522587875.51,34029,10.56,71302.5,-7.97,-9.19,-9.11,0,*5D
1522587876.75,34030,10.56,71174.8,-7.97,-9.61,-9.57,0,*58
1522587877.97,34031,10.5,71018.5,-7.97,-9.37,-9.23,0,*59
1522587879.24,34032,10.56,71162.3,-7.99,-9.61,-9.41,0,*53
1522587880.47,34033,10.5,71204.0,-7.97,-9.23,-9.11,0,*5F
1522587881.7,34034,10.56,71294.5,-7.97,-9.11,-8.93,0,*52
1522587882.97,34035,10.56,71278.8,-7.95,-9.45,-9.57,0,*59
1522587884.21,34036,10.56,71236.5,-7.97,-9.61,-9.49,0,*51
1522587885.44,34037,10.56,71234.8,-7.97,-9.11,-8.97,0,*55
1522587886.66,34038,10.56,71254.5,-7.97,-9.19,-9.11,0,*5D
1522587887.9,34039,10.5,71302.5,-7.95,-8.89,-8.89,0,*56
1522587889.14,34040,10.56,71196.3,-7.97,-9.57,-9.49,0,*55
1522587890.39,34041,10.56,71182.3,-7.95,-9.71,-9.53,0,*59
1522587891.61,34042,10.56,71196.8,-7.97,-9.37,-9.31,0,*5E
1522587892.86,34043,10.56,71244.8,-7.97,-9.49,-9.49,0,*59
1522587894.1,34044,10.56,71284.3,-7.97,-9.49,-9.45,0,*52
1522587895.31,34045,10.56,71270.8,-7.97,-9.23,-9.05,0,*5B
1522587896.56,34046,10.56,71264.0,-7.95,-9.15,-9.05,0,*5F
1522587897.81,34047,10.56,71234.5,-7.95,-9.27,-9.15,0,*5E
1522587899.03,34048,10.56,71248.8,-7.97,-9.11,-9.05,0,*57
1522587900.28,34049,10.5,71292.3,-7.95,-8.93,-8.81,0,*52
1522587901.48,34050,10.56,71302.5,-7.97,-9.19,-9.19,0,*5B
1522587902.73,34051,10.56,71286.3,-7.97,-9.37,-9.45,0,*5F
1522587903.96,34052,10.5,71282.0,-7.95,-9.05,-8.93,0,*55
1522587905.23,34053,10.56,71256.5,-7.95,-9.57,-9.53,0,*5E
1522587906.45,34054,10.56,71264.8,-7.95,-9.05,-9.05,0,*5D
1522587907.65,34055,10.56,71256.5,-7.97,-8.97,-8.93,0,*5A
1522587908.9,34056,10.5,71254.3,-7.95,-9.15,-9.05,0,*5E
1522587910.17,34057,10.5,71264.0,-7.95,-9.57,-9.45,0,*5D
1522587911.42,34058,10.5,71260.3,-7.97,-9.49,-9.37,0,*5A
1522587912.68,34059,10.56,71282.3,-7.95,-9.57,-9.45,0,*53
1522587913.88,34060,10.5,71274.0,-7.97,-9.75,-9.71,0,*5C
1522587915.08,34061,10.56,71288.0,-7.97,-9.93,-9.89,0,*52
1522587916.27,34062,10.5,71256.3,-7.97,-9.93,-9.75,0,*52
1522587917.47,34063,10.5,71088.3,-7.97,-9.75,-9.75,0,*5B
1522587918.7,34064,10.56,71266.5,-7.97,-9.71,-9.49,0,*57
1522587919.9,34065,10.5,71266.3,-7.97,-9.23,-9.05,0,*59
1522587921.1,34066,10.56,71304.8,-7.97,-9.23,-9.05,0,*5A
1522587922.29,34067,10.56,71212.5,-7.97,-9.23,-9.19,0,*56
1522587923.54,34068,10.56,71168.8,-7.95,-9.31,-9.41,0,*55
1522587924.74,34069,10.56,71228.3,-7.97,-9.19,-9.05,0,*5C
1522587925.99,34070,10.5,71184.8,-7.97,-9.45,-9.37,0,*5C
1522587927.22,34071,10.56,71284.5,-7.95,-8.93,-8.89,0,*51
1522587928.43,34072,10.56,71280.3,-7.97,-8.97,-8.85,0,*58
1522587929.62,34073,10.56,71302.5,-7.97,-8.97,-8.93,0,*5E
1522587930.85,34074,10.56,71270.0,-7.97,-9.11,-8.97,0,*52
1522587932.08,34075,10.5,71272.5,-7.95,-9.05,-9.01,0,*5A
1522587933.33,34076,10.56,71240.5,-7.95,-8.93,-8.81,0,*5E
1522587934.53,34077,10.5,71254.5,-7.93,-8.89,-8.89,0,*5A
1522587935.76,34078,10.5,71302.5,-7.95,-8.89,-8.89,0,*53
1522587936.98,34079,10.5,71262.5,-7.91,-9.27,-9.23,0,*52
1522587938.26,34080,10.56,71234.8,-7.91,-9.37,-9.15,0,*50
1522587939.46,34081,10.56,71186.5,-7.93,-9.01,-8.89,0,*52
1522587940.67,34082,10.56,71246.0,-7.93,-9.01,-8.93,0,*5A
1522587941.89,34083,10.5,71194.3,-7.93,-9.37,-9.23,0,*54
1522587943.11,34084,10.5,71176.0,-7.93,-9.27,-9.11,0,*53
1522587944.36,34085,10.5,71258.3,-7.91,-9.27,-9.11,0,*50
1522587945.58,34086,10.56,71306.8,-7.93,-9.27,-9.15,0,*55
1522587946.83,34087,10.5,71286.8,-7.91,-9.27,-9.11,0,*52
1522587948.03,34088,10.56,71338.3,-7.93,-9.01,-8.93,0,*50
1522587949.29,34089,10.5,71338.8,-7.91,-9.37,-9.27,0,*58
1522587950.53,34090,10.56,71316.8,-7.93,-9.49,-9.41,0,*5B
1522587951.74,34091,10.56,71326.3,-7.93,-9.57,-9.71,0,*56
1522587952.93,34092,10.5,71316.8,-7.93,-9.67,-9.67,0,*51
1522587954.2,34093,10.56,71300.0,-7.95,-9.57,-9.41,0,*51
1522587955.41,34094,10.56,71288.3,-7.93,-9.83,-9.71,0,*5A
1522587956.61,34095,10.5,71278.5,-7.97,-10.01,-9.89,0,*6A
1522587957.86,34096,10.56,71138.3,-7.95,-10.01,-9.83,0,*61
1522587959.1,34097,10.5,71152.8,-7.97,-9.57,-9.37,0,*56
1522587960.33,34098,10.56,71230.0,-7.97,-9.23,-9.11,0,*5E
1522587961.57,34099,10.56,71248.5,-7.95,-9.41,-9.31,0,*5B
1522587962.82,34100,10.56,71282.8,-7.95,-9.41,-9.31,0,*5A
1522587964.06,34101,10.56,71230.0,-7.95,-9.41,-9.19,0,*51
1522587965.28,34102,10.56,71264.0,-7.95,-9.27,-9.19,0,*52
1522587966.53,34103,10.5,71262.3,-7.95,-9.31,-9.15,0,*58
1522587967.76,34104,10.56,71230.5,-7.91,-8.97,-8.89,0,*52
1522587969.0,34105,10.56,71194.3,-7.95,-9.27,-9.15,0,*59
1522587970.25,34106,10.56,71184.0,-7.95,-9.41,-9.19,0,*56
1522587971.47,34107,10.56,71190.0,-7.93,-9.41,-9.19,0,*51
1522587972.69,34108,10.56,71206.5,-7.93,-9.41,-9.27,0,*53
1522587973.93,34109,10.56,71218.8,-7.93,-9.57,-9.53,0,*56
1522587975.17,34110,10.56,71236.3,-7.93,-9.57,-9.45,0,*59
1522587976.39,34111,10.5,71280.3,-7.95,-9.05,-8.93,0,*53
1522587977.64,34112,10.5,71256.3,-7.95,-9.41,-9.31,0,*59
1522587978.9,34113,10.56,71210.3,-7.95,-9.57,-9.41,0,*58
1522587980.15,34114,10.56,71206.5,-7.95,-9.67,-9.53,0,*5F
1522587981.35,34115,10.56,71248.3,-7.97,-9.23,-9.05,0,*5F
1522587982.57,34116,10.56,71220.3,-7.95,-9.27,-9.19,0,*57
1522587983.79,34117,10.56,71260.3,-7.95,-9.31,-9.19,0,*51
1522587985.02,34118,10.56,71274.3,-7.95,-8.93,-8.89,0,*5F
1522587986.25,34119,10.56,71280.3,-7.95,-8.93,-8.93,0,*55
1522587987.52,34120,10.56,71230.3,-7.95,-9.53,-9.53,0,*5F
1522587988.72,34121,10.5,71144.0,-7.97,-9.79,-9.75,0,*50
1522587989.96,34122,10.56,71200.5,-7.95,-9.41,-9.31,0,*5A
1522587991.22,34123,10.56,71208.8,-7.95,-9.15,-9.05,0,*5D
1522587992.44,34124,10.56,71186.3,-7.97,-9.37,-9.31,0,*5F
1522587993.69,34125,10.56,71070.8,-7.95,-9.15,-9.01,0,*5F
1522587994.92,34126,10.56,71262.3,-7.95,-9.05,-8.93,0,*57
1522587996.14,34127,10.56,71286.3,-7.95,-9.27,-9.05,0,*58
1522587997.37,34128,10.56,71270.3,-7.95,-9.01,-8.89,0,*56
1522587998.59,34129,10.56,71264.8,-7.97,-9.53,-9.75,0,*50
1522587999.84,34130,10.5,71224.8,-7.95,-10.15,-10.01,0,*5B
1522588001.1,34131,10.5,71222.5,-7.95,-9.57,-9.53,0,*5B
1522588002.33,34132,10.56,71236.0,-7.97,-9.19,-9.11,0,*56
1522588003.58,34133,10.56,71230.5,-7.95,-9.41,-9.27,0,*5D
1522588004.8,34134,10.56,71220.3,-7.95,-9.31,-9.19,0,*50
1522588006.02,34135,10.56,71090.8,-7.97,-9.23,-9.15,0,*5C
1522588007.28,34136,10.56,71188.0,-7.95,-9.15,-9.01,0,*5D
1522588008.51,34137,10.56,71284.5,-7.95,-9.01,-8.93,0,*53
1522588009.75,34138,10.56,71272.8,-7.95,-9.41,-9.31,0,*51
1522588011.01,34139,10.56,71234.0,-7.95,-9.15,-9.05,0,*56
1522588012.24,34140,10.56,71220.0,-7.95,-8.93,-8.89,0,*52
1522588013.47,34141,10.56,71224.3,-7.95,-8.93,-8.89,0,*53
1522588014.69,34142,10.56,71222.5,-7.95,-9.19,-9.05,0,*56
1522588015.92,34143,10.5,71216.5,-7.95,-8.93,-8.93,0,*5A
1522588017.15,34144,10.56,71214.3,-7.95,-9.01,-8.89,0,*5C
1522588018.37,34145,10.56,71296.3,-7.95,-9.19,-9.01,0,*55
1522588019.62,34146,10.5,71240.8,-7.93,-9.53,-9.45,0,*5E
1522588020.86,34147,10.5,71216.5,-7.95,-9.41,-9.19,0,*53
1522588022.09,34148,10.56,71204.8,-7.91,-9.27,-9.01,0,*51
1522588023.29,34149,10.56,71302.0,-7.93,-9.19,-8.93,0,*55
1522588024.52,34150,10.56,71210.8,-7.93,-9.15,-9.01,0,*5B
1522588025.72,34151,10.56,71256.5,-7.93,-9.05,-8.93,0,*51
1522588026.95,34152,10.56,71206.5,-7.93,-9.15,-8.93,0,*53
1522588028.14,34153,10.56,71216.5,-7.93,-9.31,-9.19,0,*57
1522588029.37,34154,10.5,71224.3,-7.93,-9.15,-8.93,0,*55
1522588030.59,34155,10.56,71296.3,-7.93,-8.89,-8.81,0,*53
1522588031.81,34156,10.56,71344.8,-7.91,-8.89,-8.75,0,*59
1522588033.01,34157,10.56,71350.8,-7.93,-9.05,-9.01,0,*5D
1522588034.29,34158,10.56,71306.0,-7.91,-9.61,-9.53,0,*55
1522588035.5,34159,10.56,71256.5,-7.93,-9.83,-9.75,0,*5E
1522588036.75,34160,10.56,71258.5,-7.93,-9.45,-9.41,0,*59
1522588037.96,34161,10.56,71288.5,-7.93,-9.27,-9.15,0,*5D
1522588039.16,34162,10.5,71230.0,-7.93,-9.19,-9.19,0,*5F
1522588040.4,34163,10.5,71116.3,-7.93,-9.57,-9.53,0,*5A
1522588041.61,34164,10.56,71164.0,-7.93,-9.45,-9.31,0,*5A
1522588042.81,34165,10.56,71220.5,-7.93,-9.31,-9.27,0,*5F
1522588044.05,34166,10.56,71242.0,-7.93,-9.45,-9.41,0,*5F
1522588045.25,34167,10.56,71270.3,-7.93,-9.19,-9.05,0,*57
1522588046.47,34168,10.5,71314.3,-7.93,-9.19,-9.15,0,*59
1522588047.69,34169,10.56,71266.0,-7.93,-9.71,-9.57,0,*50
1522588048.93,34170,10.56,71218.8,-7.93,-9.53,-9.45,0,*5B
1522588050.16,34171,10.56,71278.3,-7.95,-9.05,-9.01,0,*5F
1522588051.41,34172,10.56,71296.8,-7.95,-8.93,-8.81,0,*5B
1522588052.64,34173,10.56,71312.5,-7.95,-9.01,-8.89,0,*58
1522588053.83,34174,10.56,71338.8,-7.93,-8.71,-8.63,0,*5B
1522588055.07,34175,10.56,71306.8,-7.91,-8.89,-8.85,0,*57
1522588056.3,34176,10.56,71324.3,-7.93,-9.57,-9.41,0,*5D
1522588057.51,34177,10.56,71314.5,-7.93,-9.45,-9.31,0,*58
1522588058.74,34178,10.56,71276.5,-7.93,-9.67,-9.53,0,*53
1522588059.95,34179,10.56,71290.0,-7.95,-9.89,-9.71,0,*54
1522588061.17,34180,10.56,71284.3,-7.95,-9.75,-9.71,0,*51
1522588062.43,34181,10.56,71236.8,-7.95,-9.57,-9.57,0,*54
1522588063.63,34182,10.56,71270.5,-7.97,-9.23,-9.23,0,*55
1522588064.87,34183,10.56,71240.0,-7.97,-9.57,-9.45,0,*57
1522588066.1,34184,10.56,71324.5,-7.95,-9.19,-9.05,0,*5C
1522588067.32,34185,10.56,71296.3,-7.95,-9.31,-9.27,0,*57
1522588068.55,34186,10.56,71318.0,-7.97,-9.19,-9.11,0,*59
1522588069.81,34187,10.56,71266.0,-7.95,-9.57,-9.53,0,*56
1522588071.01,34188,10.5,71254.3,-7.97,-9.75,-9.71,0,*5B
1522588072.26,34189,10.56,71262.8,-7.95,-9.27,-9.15,0,*5D
1522588073.51,34190,10.5,71270.8,-7.95,-8.89,-8.81,0,*5C
1522588074.76,34191,10.56,71284.5,-7.95,-9.15,-9.05,0,*54
1522588075.98,34192,10.5,71142.5,-7.95,-9.19,-9.05,0,*5B
1522588077.2,34193,10.56,71250.5,-7.95,-9.31,-9.19,0,*5D
1522588078.45,34194,10.5,71254.8,-7.95,-9.41,-9.19,0,*5D
1522588079.72,34195,10.56,71260.3,-7.95,-9.57,-9.53,0,*55
1522588080.93,34196,10.56,71224.3,-7.95,-9.89,-9.71,0,*55
1522588082.18,34197,10.56,71272.8,-7.97,-9.49,-9.37,0,*58
1522588083.41,34198,10.56,71276.0,-7.95,-9.19,-9.01,0,*55
1522588084.62,34199,10.56,71244.0,-7.97,-8.97,-8.81,0,*58
1522588085.86,34200,10.56,71230.8,-7.95,-8.93,-8.89,0,*55
1522588087.1,34201,10.5,71256.8,-7.95,-9.01,-8.81,0,*56
1522588088.36,34202,10.56,71210.8,-7.95,-9.15,-8.93,0,*53
1522588089.58,34203,10.5,71200.3,-7.95,-9.05,-8.89,0,*58
1522588090.79,34204,10.56,71192.0,-7.93,-8.93,-8.89,0,*57
1522588091.99,34205,10.56,71286.5,-7.93,-9.05,-8.89,0,*58
1522588093.23,34206,10.5,71298.3,-7.93,-9.45,-9.41,0,*5A
1522588094.43,34207,10.56,71284.0,-7.93,-9.75,-9.67,0,*5C
1522588095.64,34208,10.56,71264.3,-7.93,-9.83,-9.75,0,*59
1522588096.83,34209,10.56,71262.5,-7.93,-9.89,-9.75,0,*52
1522588098.07,34210,10.5,71250.8,-7.95,-9.53,-9.31,0,*5B
1522588099.31,34211,10.56,71252.0,-7.95,-9.41,-9.31,0,*59
1522588100.58,34212,10.56,71226.5,-7.95,-9.53,-9.53,0,*5D
1522588101.83,34213,10.56,71156.8,-7.95,-9.41,-9.27,0,*5C
1522588103.05,34214,10.56,71220.5,-7.95,-9.31,-9.19,0,*51
1522588104.32,34215,10.5,71252.5,-7.95,-9.53,-9.45,0,*5D
1522588105.54,34216,10.56,71240.5,-7.95,-9.75,-9.71,0,*5D
1522588106.74,34217,10.56,71252.3,-7.97,-10.01,-9.89,0,*62
1522588107.95,34218,10.56,71272.3,-7.97,-9.57,-9.31,0,*55
1522588109.22,34219,10.5,71292.3,-7.95,-9.57,-9.53,0,*52
1522588110.46,34220,10.56,71272.8,-7.95,-9.67,-9.57,0,*5F
1522588111.65,34221,10.56,71210.3,-7.97,-9.93,-9.89,0,*54